Hopewell, New Jersey, United States (08525)
Lat: 40.39N, Lon: 74.76W
Wx Zone: NJZ015
Local Info
Past Weather Observations for Wednesday, July 1, 2015

NOTE: This archive is for the closest National Weather Service station to Hopewell. Information may differ from the station used for current weather conditions.

Click here for Long-term Archive

Time Weather Temperature Dewpoint Humidity Pressure Winds Precip Visibility
23:53
Clear
Fog And Mist
63°F / 17°C 61°F / 16°C 94% 29.89 in
(1012 mb)
Calm - 4SM
22:53
Clear
64°F / 18°C 61°F / 16°C 88% 29.86 in
(1011 mb)
Calm - 7SM
21:53
Clear
70°F / 21°C 61°F / 16°C 73% 29.89 in
(1012 mb)
Calm - 8SM
20:53
Clear
73°F / 23°C 59°F / 15°C 61% 29.86 in
(1011 mb)
Calm - 9SM
19:53
Clear
75°F / 24°C 59°F / 15°C 57% 29.83 in
(1010 mb)
Variable 3.5 mph
(Variable 6 kph)
- 9SM
18:53
Clear
73°F / 23°C 63°F / 17°C 69% 29.8 in
(1009 mb)
Calm - 7SM
17:53
Clear
81°F / 27°C 59°F / 15°C 48% 29.77 in
(1008 mb)
Variable 5.8 mph
(Variable 9 kph)
- 8SM
16:53
Clear
81°F / 27°C 63°F / 17°C 54% 29.77 in
(1008 mb)
Variable 6.9 mph
(Variable 11 kph)
- 8SM
15:53
Partly Cloudy
81°F / 27°C 63°F / 17°C 54% 29.77 in
(1008 mb)
WNW 9.2 mph
(WNW 15 kph)
- 8SM
14:53
Partly Cloudy
81°F / 27°C 63°F / 17°C 54% 29.77 in
(1008 mb)
Variable 4.6 mph
(Variable 7 kph)
- 7SM
13:53
Partly Cloudy
82°F / 28°C 64°F / 18°C 55% 29.77 in
(1008 mb)
Calm - 8SM
12:53
Mostly Cloudy
79°F / 26°C 64°F / 18°C 61% 29.77 in
(1008 mb)
Variable 4.6 mph
(Variable 7 kph)
- 8SM
11:53
Partly Cloudy
79°F / 26°C 63°F / 17°C 58% 29.8 in
(1009 mb)
Variable 3.5 mph
(Variable 6 kph)
- 9SM
10:53
Partly Cloudy
79°F / 26°C 63°F / 17°C 58% 29.8 in
(1009 mb)
Variable 6.9 mph
(Variable 11 kph)
- 9SM
10:01
Partly Cloudy
75°F / 24°C 64°F / 18°C 69% 29.8 in
(1009 mb)
Variable 5.8 mph
(Variable 9 kph)
- 9SM
09:53
Mostly Cloudy
75°F / 24°C 64°F / 18°C 69% 29.8 in
(1009 mb)
SSW 8.1 mph
(SSW 13 kph)
- 8SM
09:27
Mostly Cloudy
75°F / 24°C 64°F / 18°C 69% 29.8 in
(1009 mb)
Variable 4.6 mph
(Variable 7 kph)
- 8SM
08:53
Clear
73°F / 23°C 64°F / 18°C 74% 29.8 in
(1009 mb)
Variable 5.8 mph
(Variable 9 kph)
- 8SM
08:39
Partly Cloudy
73°F / 23°C 66°F / 19°C 78% 29.8 in
(1009 mb)
Variable 4.6 mph
(Variable 7 kph)
- 8SM
07:53
Overcast
72°F / 22°C 66°F / 19°C 83% 29.77 in
(1008 mb)
Calm - 7SM
07:34
Mostly Cloudy
70°F / 21°C 66°F / 19°C 88% 29.77 in
(1008 mb)
SSE 3.5 mph
(SSE 6 kph)
- 7SM
07:26
Partly Cloudy
Fog And Mist
70°F / 21°C 66°F / 19°C 88% 29.77 in
(1008 mb)
S 4.6 mph
(S 7 kph)
- 6SM
06:53
Overcast
Fog And Mist
68°F / 20°C 66°F / 19°C 94% 29.77 in
(1008 mb)
S 4.6 mph
(S 7 kph)
- 5SM
06:38
Mostly Cloudy
Fog And Mist
68°F / 20°C 64°F / 18°C 88% 29.77 in
(1008 mb)
S 4.6 mph
(S 7 kph)
- 5SM
06:21
Partly Cloudy
Fog And Mist
66°F / 19°C 64°F / 18°C 94% 29.77 in
(1008 mb)
S 3.5 mph
(S 6 kph)
- 4SM
05:53
Mostly Cloudy
Fog And Mist
66°F / 19°C 64°F / 18°C 94% 29.77 in
(1008 mb)
Calm 0.00 in
(0.00 mm)
4SM
05:14
Partly Cloudy
Fog And Mist
66°F / 19°C 64°F / 18°C 94% 29.74 in
(1007 mb)
SE 4.6 mph
(SE 7 kph)
- 3SM
05:02
Partly Cloudy
Fog And Mist
66°F / 19°C 64°F / 18°C 94% 29.74 in
(1007 mb)
Calm - 2 1/2SM
04:53
Partly Cloudy
Fog And Mist
66°F / 19°C 64°F / 18°C 94% 29.74 in
(1007 mb)
Calm 0.01 in
(0.25 mm)
3SM
03:53
Mostly Cloudy
Light Rain
68°F / 20°C 64°F / 18°C 88% 29.74 in
(1007 mb)
Calm 0.02 in
(0.51 mm)
7SM
03:16
Mostly Cloudy
Light Rain
70°F / 21°C 64°F / 18°C 83% 29.77 in
(1008 mb)
Variable 3.5 mph
(Variable 6 kph)
0.02 in
(0.51 mm)
8SM
03:02
Overcast
Thunder Storms
70°F / 21°C 64°F / 18°C 83% 29.74 in
(1007 mb)
Variable 6.9 mph
(Variable 11 kph)
0.01 in
(0.25 mm)
4SM
02:53
Overcast
Thunder Storms
72°F / 22°C 68°F / 20°C 88% 29.77 in
(1008 mb)
W 9.2 mph
(W 15 kph)
0.19 in
(4.83 mm)
4SM
02:50
Overcast
Thunder Storms
72°F / 22°C 68°F / 20°C 88% 29.8 in
(1009 mb)
Variable 4.6 mph
(Variable 7 kph)
0.18 in
(4.57 mm)
2 1/2SM
02:46
Overcast
Thunder Storms
72°F / 22°C 70°F / 21°C 94% 29.8 in
(1009 mb)
Variable 5.8 mph
(Variable 9 kph)
0.17 in
(4.32 mm)
1 1/4SM
02:35
Overcast
Thunder Storms
72°F / 22°C 70°F / 21°C 94% 29.77 in
(1008 mb)
Calm 0.08 in
(2.03 mm)
2SM
02:32
Overcast
Thunder Storms
72°F / 22°C 70°F / 21°C 94% 29.77 in
(1008 mb)
W 3.5 mph
(W 6 kph)
0.08 in
(2.03 mm)
1 1/2SM
02:24
Overcast
Thunder Storms
72°F / 22°C 70°F / 21°C 94% 29.77 in
(1008 mb)
Calm 0.03 in
(0.76 mm)
2 1/2SM
01:53
Overcast
Fog And Mist
72°F / 22°C 70°F / 21°C 94% 29.77 in
(1008 mb)
Calm - 6SM
00:53
Overcast
72°F / 22°C 70°F / 21°C 94% 29.77 in
(1008 mb)
Calm - 7SM
Time Weather Temperature Dewpoint Humidity Pressure Winds Precip Visibility


Weather for websites

WeatherForYou.com, LLC is not responsible for any damages or problems caused by this service. Current weather conditions are obtained from the closest station including government and personal stations which may have varying degrees of accuracy. Weather forecasts are derived from the NOAA NDFD. Like all things, this site belongs to Jesus Christ... He just trusts us to maintain it. If you have any questions or comments email webmaster@weatherforyou.com

Copyright © 2015, WeatherForYou.com LLC. All rights reserved.